This demonstration page uses our WeatherBlox Daily Observations layout. Learn more.

Left ArrowRight Arrow

39.12711, -84.51439

Hourly Observations for September 3, 2021

Temp ( °F °C ) Dew Point ( °F °C ) Humidity (%) Winds ( mph kmh ) Pressure ( in mb ) Visibility ( mi km ) Precip ( " mm )
12:53 am 00:53 Clear 57 13.9 55 12.8 93 93 ENE 3 6 30.11 1020 10 16 0.00 0.00
1:53 am 01:53 Clear 61 16.1 57 13.9 87 87 NNE 5 7 30.11 1020 10 16 0.00 0.00
2:53 am 02:53 Clear 61 16.1 56 13.3 84 84 NNE 6 9 30.10 1019 10 16 0.00 0.00
3:53 am 03:53 Clear 58 14.4 55 12.8 90 90 Calm 30.11 1020 10 16 0.00 0.00
4:53 am 04:53 Clear 58 14.4 56 13.3 93 93 Calm 30.11 1020 10 16 0.00 0.00
5:53 am 05:53 Clear 56 13.3 55 12.8 97 97 Calm 30.10 1019 10 16 0.00 0.00
6:53 am 06:53 Clear 55 12.8 53 11.7 93 93 Calm 30.12 1020 10 16 0.00 0.00
7:53 am 07:53 Sunny 56 13.3 54 12.2 93 93 Calm 30.14 1021 10 16 0.00 0.00
8:53 am 08:53 Sunny 63 17.2 55 12.8 76 76 NE 3 6 30.15 1021 10 16 0.00 0.00
9:53 am 09:53 Sunny 67 19.4 56 13.3 68 68 Calm 30.15 1021 10 16 0.00 0.00
10:53 am 10:53 Sunny 72 22.2 53 11.7 52 52 VRB 3 6 30.15 1021 10 16 0.00 0.00
11:53 am 11:53 Sunny 75 23.9 54 12.2 48 48 VRB 3 6 30.15 1021 10 16 0.00 0.00
12:53 pm 12:53 Partly Cloudy 76 24.4 55 12.8 48 48 Calm 30.14 1021 10 16 0.00 0.00
1:53 pm 13:53 Sunny 77 25 52 11.1 42 42 Calm 30.12 1020 10 16 0.00 0.00
2:53 pm 14:53 Partly Cloudy 78 25.6 54 12.2 43 43 S 6 9 30.10 1019 10 16 0.00 0.00
3:53 pm 15:53 Sunny 77 25 54 12.2 45 45 ESE 5 7 30.09 1019 10 16 0.00 0.00
4:53 pm 16:53 Sunny 79 26.1 53 11.7 41 41 NNE 3 6 30.08 1019 10 16 0.00 0.00
5:53 pm 17:53 Sunny 77 25 53 11.7 43 43 ENE 7 11 30.07 1018 10 16 0.00 0.00
6:53 pm 18:53 Sunny 74 23.3 56 13.3 54 54 E 5 7 30.06 1018 10 16 0.00 0.00
7:53 pm 19:53 Sunny 70 21.1 57 13.9 64 64 E 7 11 30.05 1018 10 16 0.00 0.00
8:53 pm 20:53 Clear 68 20 59 15 73 73 ENE 5 7 30.05 1018 10 16 0.00 0.00
9:53 pm 21:53 Clear 68 20 58 14.4 70 70 NE 6 9 30.06 1018 10 16 0.00 0.00
10:53 pm 22:53 Clear 65 18.3 59 15 81 81 Calm 30.06 1018 10 16 0.00 0.00
11:53 pm 23:53 Clear 61 16.1 58 14.4 90 90 Calm 30.05 1018 10 16 0.00 0.00

Powered by AerisWeather